RH
14 12 19 11 8 7 7 89 88 97 75 95 100 91 74 72 64 54 53 56 50 49 46 47 52 58 63 67 67 69 67 62 63 70 67 65 64 62 68 67 69 54 61
26 16 18 19 12 9 9 8 69 86 95 96 96 95 99 93 86 77 64 70 56 53 56 58 59 67 68 74 76 76 77 68 72 74 76 74 68 69 69 74 69 62 67
48 24 16 26 18 12 11 24 99 96 99 96 94 96 94 94 96 98 82 85 91 84 76 73 68 76 77 80 80 84 85 81 76 81 72 80 74 67 70 79 74 72 70
48 32 19 31 28 19 16 15 34 68 99 98 97 96 95 98 99 97 96 83 89 93 89 84 83 83 78 76 81 88 94 90 83 82 90 83 83 72 86 89 82 67 49
39 24 21 45 44 31 21 18 20 98 91 100 97 96 96 94 96 95 95 93 83 84 86 87 89 82 82 80 80 85 94 95 94 91 94 93 90 85 90 90 71 70 50
65 33 24 34 48 36 32 24 19 37 46 77 96 97 98 94 93 97 100 98 96 94 88 83 86 92 83 91 93 98 92 95 92 93 95 92 82 84 90 75 68 57 39
86 36 23 34 45 45 33 33 25 24 49 98 98 96 96 93 95 96 97 94 91 97 100 96 93 96 97 99 96 97 94 92 95 93 98 99 96 93 88 76 79 61 36
75 50 26 26 43 45 38 34 31 28 27 96 100 97 98 97 97 97 97 96 95 83 91 94 92 91 84 90 96 92 94 96 98 95 97 84 92 94 84 49 36 31 29
69 48 39 40 42 44 35 32 32 38 41 85 95 97 99 98 99 97 98 98 97 97 95 96 96 87 86 95 93 95 99 98 96 89 95 90 78 54 41 35 32 29 29
61 51 32 29 33 37 37 34 35 30 35 53 75 89 94 92 93 94 98 97 96 97 98 97 96 93 97 98 98 98 98 92 94 91 78 60 48 42 38 33 30 32 39
54 52 38 30 28 31 37 40 37 39 34 54 67 71 81 74 82 91 89 96 96 98 97 96 98 98 96 98 98 94 94 92 82 72 63 51 44 40 36 33 36 45 59
48 50 46 37 30 27 26 32 42 40 38 42 59 79 63 60 66 55 59 68 98 97 93 95 96 98 96 99 92 97 96 94 79 69 57 45 41 37 38 44 59 72 63
42 55 58 62 49 40 30 35 43 50 62 58 40 59 60 53 55 46 35 52 96 91 98 96 98 97 98 100 91 97 98 96 96 83 48 42 39 40 53 64 75 61 48
39 44 60 72 93 80 67 60 66 52 50 82 74 64 72 78 61 56 53 58 94 96 96 100 98 93 90 93 97 100 100 97 89 60 43 39 43 59 81 78 57 50 49
45 39 52 58 64 88 88 100 94 97 45 65 77 96 90 82 84 78 65 72 92 99 100 96 82 84 99 100 100 92 84 77 54 44 41 52 63 79 69 57 52 50 52
36 39 38 42 49 73 100 100 100 96 61 50 68 95 100 100 92 76 50 45 67 98 95 67 84 94 100 100 98 91 82 56 44 43 53 64 79 58 55 55 54 54 51
50 97 98 98 100 96 92 100 91 77 46 61 90 100 100 100 100 91 84 56 46 44 50 65 83 99 100 99 94 70 46 48 55 64 85 65 56 57 56 61 58 49 36
81 93 95 96 86 94 90 98 92 92 98 98 100 100 100 100 100 100 100 100 89 79 88 86 86 97 92 62 48 47 44 79 90 72 68 60 62 62 66 60 47 36 28
71 88 92 95 89 97 92 90 100 100 90 100 99 100 100 100 100 100 99 92 98 100 100 99 98 70 52 46 58 85 77 92 71 71 69 69 72 69 60 48 37 30 21
40 64 67 80 97 92 85 100 86 96 92 100 97 99 86 94 98 99 100 100 100 99 96 95 58 46 48 82 98 84 62 78 78 76 75 73 72 61 49 38 32 22 14
32 40 48 58 64 83 100 93 98 98 95 100 100 99 98 100 99 99 99 98 95 79 53 46 46 61 90 87 75 73 82 87 84 80 75 69 62 51 40 33 26 18 13
61 59 56 56 54 50 50 76 88 99 99 100 99 99 99 96 78 72 58 50 47 48 55 71 86 88 77 83 86 91 90 88 82 75 70 64 53 43 36 29 20 16 10
73 67 61 58 58 58 58 58 60 61 60 58 56 53 49 50 50 53 60 76 82 88 95 95 84 86 91 93 94 89 84 81 74 71 65 56 48 40 32 22 16 9 5
100 100 89 76 81 91 84 74 74 78 73 74 72 68 76 80 81 90 97 100 100 100 99 97 99 97 95 92 86 80 77 79 75 68 60 52 43 34 22 16 9 6 5
100 99 100 100 100 100 100 99 99 99 98 98 98 98 98 99 100 99 99 100 100 100 100 99 93 89 83 79 81 84 78 78 73 66 55 48 35 22 15 10 6 6 6
99 96 96 96 99 97 97 100 100 100 100 100 100 100 100 99 99 100 100 100 100 97 92 86 82 82 85 86 82 79 77 73 67 59 51 37 23 16 10 7 6 6 15
Wind_Speed
36 38 47 59 72 78 76 72 77 63 67 78 67 71 68 63 59 54 53 52 49 46 44 42 41 38 38 37 36 37 38 37 34 34 32 34 36 40 41 43 45 44 44
33 38 43 49 62 75 80 76 74 73 56 65 53 78 69 64 58 57 54 55 49 46 45 44 43 42 41 41 42 42 43 41 38 39 38 41 40 42 45 48 47 48 45
28 33 41 44 51 66 76 78 77 69 62 48 60 71 69 66 63 60 56 58 56 52 49 49 47 47 46 47 46 45 46 44 42 41 45 42 44 47 50 51 51 47 45
24 28 35 37 44 50 65 74 74 71 67 45 60 59 79 63 58 59 55 57 57 55 55 55 53 51 49 49 52 49 49 51 46 47 46 47 47 50 54 56 52 48 44
23 24 30 31 33 42 51 67 76 72 75 53 57 60 69 65 57 59 60 61 61 59 59 58 56 55 53 51 53 53 53 55 50 52 50 49 51 53 55 51 43 45 46
16 23 22 26 26 31 37 52 65 70 70 65 46 47 58 67 64 61 61 62 62 63 63 61 58 59 58 56 56 57 58 60 53 60 48 53 56 56 49 38 41 45 48
11 16 19 19 21 24 29 36 54 64 71 66 53 48 52 53 61 60 61 61 61 63 62 58 56 57 56 56 56 56 59 55 56 51 56 57 56 52 36 41 46 47 50
8 9 12 15 17 22 25 31 39 61 69 73 51 70 37 31 34 61 54 61 62 70 62 58 58 55 59 58 55 55 57 57 56 53 44 35 38 41 42 43 47 49 52
9 5 7 9 12 17 23 26 32 44 61 63 66 53 49 46 48 39 36 48 51 51 52 60 55 58 57 59 60 56 62 59 54 32 36 38 37 40 43 47 51 50 53
8 4 4 6 9 13 18 23 27 34 43 57 59 62 59 54 53 49 43 33 38 39 46 56 54 49 55 61 53 56 37 25 29 30 32 36 37 41 46 50 51 53 57
7 4 5 7 8 11 14 19 24 27 33 40 47 53 55 53 54 50 55 44 43 44 39 43 57 51 38 23 28 23 26 27 26 31 34 40 40 43 48 51 53 57 61
5 3 5 8 10 13 15 15 19 23 27 33 38 42 50 52 51 55 56 52 39 27 22 35 44 30 20 16 24 22 27 27 31 33 38 41 43 46 50 54 57 61 64
4 5 5 8 11 13 16 16 18 20 24 26 31 35 38 43 49 54 62 59 42 36 16 20 17 21 16 22 23 26 31 30 31 37 43 42 44 49 53 58 60 62 63
4 5 7 4 8 11 15 18 19 23 24 24 25 28 32 33 41 49 52 46 39 46 30 18 26 30 31 28 31 33 31 33 34 41 45 45 48 53 56 59 61 61 63
7 7 7 9 8 9 14 18 22 17 23 25 23 22 22 26 31 34 40 40 22 32 22 24 34 29 28 29 28 30 32 34 39 43 46 48 52 56 58 59 61 62 64
6 5 7 9 11 13 10 8 11 15 21 26 23 19 18 25 18 24 31 35 41 40 36 32 34 34 30 32 33 38 35 38 41 44 47 52 54 56 58 60 62 64 66
8 8 10 4 3 5 4 6 8 8 18 24 24 19 23 31 33 18 20 23 31 43 38 33 33 38 34 34 31 33 36 41 41 48 49 52 54 55 58 60 62 65 67
6 13 13 11 8 5 5 6 7 9 10 22 26 19 19 24 25 22 32 27 25 29 30 33 37 28 28 31 33 35 41 42 44 49 49 53 55 56 56 59 63 66 69
10 8 13 15 13 8 9 7 13 15 11 15 17 17 19 19 24 24 25 27 27 30 37 27 23 30 28 34 36 36 45 40 44 48 51 54 53 57 58 61 64 68 71
10 9 10 12 13 12 9 10 10 13 14 16 19 24 18 26 24 27 24 26 23 28 35 26 27 32 33 36 39 41 43 42 46 50 53 54 55 58 61 63 66 69 74
6 7 7 10 12 9 6 3 10 12 10 18 27 28 26 27 26 34 32 32 29 19 21 25 28 32 36 38 39 41 42 46 49 51 53 55 58 60 63 65 68 71 76
5 5 5 5 5 5 4 3 3 7 10 16 21 24 17 14 11 13 13 16 19 22 24 27 31 35 37 38 40 42 45 48 51 53 54 56 59 61 64 67 70 75 77
4 3 3 4 3 2 1 0 1 3 4 6 7 10 13 14 14 15 17 19 21 24 27 30 34 36 38 39 42 45 48 50 52 53 55 57 60 62 65 68 72 75 77
11 9 7 4 3 3 3 3 4 5 6 7 9 11 13 16 18 19 19 21 23 26 30 33 34 36 39 42 45 47 49 49 52 53 55 58 60 63 66 69 72 74 72
11 11 11 10 10 10 9 7 7 8 9 10 11 12 14 16 17 18 20 22 25 27 30 33 36 39 42 44 45 46 48 50 52 54 56 59 61 64 67 70 73 71 62
12 12 12 12 12 11 10 9 9 10 11 12 13 14 15 17 18 20 22 25 28 31 34 37 40 42 43 44 45 47 50 51 53 55 58 60 62 65 68 71 70 61 52
Wind_Direction
247 244 240 231 225 221 221 218 216 226 234 226 225 224 226 226 226 227 226 230 230 233 235 237 238 238 243 248 256 261 268 273 280 285 288 290 297 303 304 305 305 305 299
247 239 239 235 229 221 221 220 225 220 231 232 222 218 226 226 225 226 225 228 230 230 233 237 238 242 244 248 254 262 265 271 275 279 285 285 293 298 300 302 301 301 294
247 243 236 234 230 224 221 216 219 217 226 239 226 224 219 216 220 223 223 226 229 231 233 235 237 243 247 251 254 258 263 267 267 273 282 280 292 295 297 299 296 295 287
255 245 242 236 232 227 225 220 216 222 224 237 244 216 215 216 216 221 219 223 227 231 233 236 238 241 246 248 255 255 261 265 267 276 277 280 289 293 298 298 294 288 284
259 249 243 239 234 229 225 224 219 217 215 226 236 229 215 205 209 218 221 222 226 231 235 238 240 243 243 247 253 257 261 260 264 277 278 285 289 287 292 292 282 282 283
289 254 247 238 233 234 226 226 223 221 223 224 205 216 215 209 209 214 222 227 229 231 235 239 240 242 245 248 251 256 262 265 270 278 278 287 286 284 287 282 283 284 287
293 260 245 240 228 228 222 223 223 222 220 217 211 217 215 220 216 215 222 227 230 235 238 241 246 249 253 258 259 266 268 270 274 275 283 281 285 281 276 281 282 285 290
322 293 254 243 230 224 222 216 220 222 225 230 219 217 223 228 234 236 232 234 238 238 239 244 250 253 256 261 264 269 270 270 267 278 295 286 280 277 282 283 284 285 287
325 316 287 250 227 228 226 222 217 220 221 232 238 234 242 239 236 241 228 240 243 241 244 248 251 257 261 261 262 270 268 260 261 293 278 275 275 280 283 282 282 286 289
317 292 257 253 235 225 226 224 221 225 224 229 237 241 246 248 241 249 239 235 230 245 256 254 250 263 268 261 259 260 272 294 281 266 269 273 277 283 284 286 289 292 293
310 274 248 230 223 224 224 228 228 224 225 228 234 240 243 244 244 242 250 247 245 259 258 252 256 249 259 268 272 296 292 274 269 271 277 281 286 288 289 292 294 296 299
300 257 242 239 232 228 231 231 234 235 228 231 232 236 244 243 243 242 243 251 252 257 277 256 247 248 261 252 305 286 275 268 272 284 284 287 292 293 293 295 299 303 305
302 244 240 239 241 237 233 233 232 236 235 231 233 237 237 243 241 237 237 242 241 250 257 258 233 274 292 277 299 274 265 273 284 286 286 290 294 296 298 301 304 304 305
299 277 242 253 236 226 233 234 234 233 227 230 230 238 234 240 239 241 241 252 258 248 266 248 266 289 305 296 271 273 277 284 288 289 292 295 297 299 302 304 304 306 309
321 314 278 262 251 270 270 223 221 219 226 219 225 229 234 244 242 244 245 236 258 242 221 277 287 295 283 275 273 275 283 291 290 290 292 299 300 302 304 305 306 309 313
12 347 307 278 267 268 289 291 212 201 210 216 212 204 217 212 245 237 243 245 240 249 273 280 284 279 266 260 271 282 287 287 289 293 297 299 302 305 306 306 310 314 312
39 7 321 339 77 84 115 170 185 193 197 199 191 206 202 215 217 227 228 240 240 249 267 271 277 272 258 268 279 286 288 288 295 297 301 303 305 305 305 313 313 312 314
24 26 27 31 31 73 123 158 141 168 158 187 207 202 198 205 193 219 230 233 246 247 250 266 273 263 271 279 283 286 288 294 300 300 304 304 304 307 315 312 312 315 317
10 15 19 18 33 69 143 132 157 166 188 177 182 192 193 210 219 219 237 258 257 255 265 263 279 278 285 285 285 294 290 301 301 304 304 303 312 313 312 312 316 318 321
18 20 24 25 31 29 50 185 183 187 175 207 199 200 209 211 218 229 251 243 245 258 279 269 275 282 286 289 293 294 298 303 306 303 306 312 311 312 314 316 318 322 324
23 29 26 29 27 50 78 163 193 173 223 219 214 210 217 227 232 235 239 248 264 265 269 272 277 283 286 287 290 298 306 303 304 307 310 311 312 314 316 319 321 324 326
359 7 22 35 43 58 34 44 102 194 189 194 209 215 220 236 250 252 256 258 263 268 275 282 285 283 287 293 299 302 302 305 307 308 310 312 313 316 318 321 324 325 325
306 326 340 349 2 19 21 213 266 239 223 223 225 234 244 255 259 263 268 272 276 280 282 281 283 287 292 298 301 304 305 305 306 309 310 312 314 317 320 323 324 323 323
278 273 271 264 259 262 243 240 240 237 241 243 245 253 258 261 263 265 268 273 277 280 281 284 288 293 299 301 301 302 304 305 307 309 311 313 316 319 321 322 322 322 324
261 266 268 263 256 262 269 266 261 257 255 254 256 257 258 260 266 273 280 284 286 289 291 293 296 298 299 301 302 302 303 306 307 309 312 315 318 319 320 321 322 324 322
254 258 261 256 252 259 271 279 281 279 272 265 265 270 276 283 289 290 292 292 294 295 296 297 298 299 301 301 302 304 306 307 309 311 314 316 317 319 321 321 324 323 320